Orbital Elements at Epoch 2459000.5 (2020-May-31.0) TDB
Reference: JPL 15 (heliocentric ecliptic J2000)
Element | Value | Uncertainty (1-sigma) | Units |
e | .0802452317492844 | 5.5602e-08 | |
a | 2.765503918508207 | 2.6534e-08 | au |
q | 2.543585415663961 | 1.5859e-07 | au |
i | 9.33613588270053 | 5.7696e-06 | deg |
node | 72.31371867776971 | 3.1883e-05 | deg |
peri | 253.0366490982458 | 5.0349e-05 | deg |
M | 324.2494429558569 | 3.5517e-05 | deg |
tp | 2459167.316942303506 (2020-Nov-13.81694230) | 0.00016525 | TDB |
period | 1679.808769276237 4.60 | 2.4176e-05 6.619e-08 | d yr |
n | .2143101087364306 | 3.0843e-09 | deg/d |
Q | 2.987422421352452 | 2.8663e-08 | au |
|
| | Orbit Determination Parameters
Additional Information
|